This is the latest recevied weather packets stored in our database for station/object KF4WSW-13. If no packets are shown the sender has not sent any weather packets the latest 10 day(s).
| Time | Temp. | Humidity | Pressure | Rain* | Wind** | Luminosity | Snow |
|---|---|---|---|---|---|---|---|
| 1778067055 | 22.22° C | 88% | 1013.9 hPa | 0 mm | - | 43 W/m² | - |
| 1778066752 | 22.22° C | 88% | 1014.2 hPa | 0 mm | - | 32 W/m² | - |
| 1778066450 | 22.22° C | 88% | 1014.2 hPa | 0 mm | - | 30 W/m² | - |
| 1778066147 | 21.67° C | 88% | 1013.9 hPa | 0 mm | - | 27 W/m² | - |
| 1778065844 | 21.67° C | 89% | 1014.1 hPa | 0 mm | - | 21 W/m² | - |
| 1778065542 | 21.67° C | 88% | 1013.8 hPa | 0 mm | - | 15 W/m² | - |
| 1778065239 | 21.67° C | 88% | 1013.9 hPa | 0 mm | - | 11 W/m² | - |
| 1778064935 | 21.67° C | 88% | 1013.7 hPa | 0 mm | - | 6 W/m² | - |
| 1778064632 | 21.67° C | 88% | 1013.8 hPa | 0 mm | - | 3 W/m² | - |
| 1778064330 | 21.67° C | 88% | 1013.5 hPa | 0 mm | - | 2 W/m² | - |
| 1778064028 | 21.67° C | 88% | 1013.5 hPa | 0 mm | - | 1 W/m² | - |
| 1778063725 | 21.67° C | 88% | 1013.6 hPa | 0 mm | - | 0 W/m² | - |
| 1778063421 | 21.67° C | 87% | 1013.6 hPa | 0 mm | - | 0 W/m² | - |
| 1778063120 | 21.67° C | 87% | 1013.6 hPa | 0 mm | - | 0 W/m² | - |
| 1778062817 | 21.67° C | 87% | 1013.4 hPa | 0 mm | - | 0 W/m² | - |
| 1778062513 | 21.67° C | 87% | 1013.7 hPa | 0 mm | - | 0 W/m² | - |
| 1778062211 | 21.67° C | 86% | 1013.5 hPa | 0 mm | - | 0 W/m² | - |
| 1778061909 | 21.67° C | 86% | 1013.7 hPa | 0 mm | - | 0 W/m² | - |
| 1778061607 | 21.67° C | 86% | 1013.5 hPa | 0 mm | - | 0 W/m² | - |
| 1778061305 | 22.22° C | 85% | 1013.8 hPa | 0 mm | - | 0 W/m² | - |
| 1778061001 | 21.67° C | 85% | 1013.6 hPa | 0 mm | - | 0 W/m² | - |
| 1778060699 | 22.22° C | 85% | 1013.8 hPa | 0 mm | - | 0 W/m² | - |
| 1778060396 | 21.67° C | 85% | 1013.6 hPa | 0 mm | - | 0 W/m² | - |
| 1778060095 | 21.67° C | 85% | 1013.5 hPa | 0 mm | - | 0 W/m² | - |
| 1778059792 | 22.22° C | 84% | 1013.3 hPa | 0 mm | - | 0 W/m² | - |
* Rain latest hour (hover to see other rain measurements)
** Current wind speed in m/s (hover to see current wind gust speed)